* Astronomy

Members Login
Username 
 
Password 
    Remember Me  
Post Info TOPIC: Asteroid 2012 GN12


L

Posts: 131433
Date:
Asteroid 2012 GN12
Permalink  
 


Asteroid 2012 GN12 = 2010 FY28 = 2011 GP61

Orbital elements:
2012 GN12 = 2010 FY28 = 2011 GP61
Id. A. Lowe
Epoch 2012 Mar. 14.0 TT = JDT 2456000.5                 MPC
M  14.12364              (2000.0)            P               Q
n   0.01696705     Peri.  170.54718     -0.95008954     -0.31014492
a  14.9990963      Node   351.16145     +0.26995632     -0.76304380
e   0.3712865      Incl.   12.69398     +0.15637600     -0.56707520
P  58.09           H   10.5           G   0.15           U   3

MPEC 2012 - H68



__________________
Page 1 of 1  sorted by
 
Quick Reply

Please log in to post quick replies.



Create your own FREE Forum
Report Abuse
Powered by ActiveBoard